Find Starlink 4277

NORAD ID: 53009 Int'l Des: 2022-076 Owner: SPXS Country: US Constellation: starlink operational
LEOCIRCULAR

Live Position

Loading 3D Globe...

About Starlink 4277

Description loading...

Upcoming Passes

Passes for default location (London). Set your location on the main map for personalized predictions.

Altitude History

Loading altitude history...

Two-Line Element Set

1 53009U 22076Z 26104.87210457 .00000686 00000-0 61156-4 0 9994
2 53009 53.2177 281.6909 0001273 91.8710 268.2428 15.08841055208445
Epoch: Apr 14, 2026 • Age: 9 hours

Current Status

Altitude 552.5 km
Velocity 7.58 km/s
Sub-Earth Point -37.53°S, 156.93°W
Launch Date Jul 7, 2022
Age 3.7 years
Type internet

Technical Details

Classification Payload
Mass 297.00 kg
Dry Mass 275.00 kg
Total Mass 297.00 kg
Length 0.20 m
Diameter 2.80 m
Span 9.00 m
Shape Box + pan
Manufacturer SPXS
Bus Type Starlink
Phase Status In Orbit
Owner/State SPXS/US

Most Searched